Location: Asheville, NC
(35.6000°N, 82.5500°W)
Time: 20:38:43
(UTC-04:00)

KKS-1 - Pass Details

Date: 14 March 2018
Orbit: 638 x 649 km, 98.4° (Epoch: 20 June)

Event Time Altitude Azimuth Distance (km) Brightness Sun altitude
Rises 06:23:40 0° 168° (SSE) 2,944 ? -16.8°
Reaches altitude 10° 06:25:51 10° 169° (S) 2,039 ? -16.3°
Maximum altitude 06:30:19 82° 257° (WSW) 658 ? -15.4°
Drops below altitude 10° 06:34:48 10° 345° (NNW) 2,056 ? -14.5°
Sets 06:37:01 0° 347° (NNW) 2,970 ? -14.1°
